Find Starlink 32398

NORAD ID: 61624 Int'l Des: 2024-191 Owner: SPXS Country: US Constellation: starlink operational
LEOCIRCULAR

Current View

Loading 3D Globe...

About Starlink 32398

Starlink 32398 (NORAD 61624) is a starlink constellation satellite (v2 mini) launched Oct 23, 2024 by SPXS of US. It operates in LEO, CIRCULAR orbit with a mass of 730.00 kg.

Upcoming Passes

Passes for default location (London). Set your location on the main map for personalized predictions.

Altitude History

Loading altitude history...

Two-Line Element Set

1 61624U 24191D 26226.38581300 .00000288 00000-0 19973-4 0 9993
2 61624 43.0034 343.9480 0001103 249.9270 110.1463 15.27575606101657
Epoch: Aug 14, 2026 • Age: 10 hours

Current Status

Altitude 486.8 km
Apogee / Perigee N/A
Velocity 7.63 km/s
Sub-Earth Point 42.59°N, 171.6°E
Launch Date Oct 23, 2024
Age 1.8 years
Type internet

Technical Details

Classification Payload
Mass 730.00 kg
Dry Mass 700.00 kg
Total Mass 730.00 kg
Length 0.30 m
Diameter 4.10 m
Span 29.00 m
Shape Box + pan
Manufacturer SPXS
Bus Type Starlink V2M
Phase Status In Orbit
Owner/State SPXS/US

Most Searched